This is the latest recevied weather packets stored in our database for station/object KC9MWQ-13. If no packets are shown the sender has not sent any weather packets the latest 10 day(s).
| Time | Temp. | Humidity | Pressure | Rain* | Wind** | Luminosity | Snow |
|---|---|---|---|---|---|---|---|
| 1778001778 | 10.56° C | 92% | 1009.6 hPa | 1.27 mm | - | 80 W/m² | - |
| 1778001473 | 10.56° C | 92% | 1009.7 hPa | 1.78 mm | - | 101 W/m² | - |
| 1778001170 | 10.56° C | 91% | 1009.8 hPa | 4.83 mm | - | 98 W/m² | - |
| 1778000866 | 10.56° C | 91% | 1009.7 hPa | 3.56 mm | - | 92 W/m² | - |
| 1778000564 | 10.56° C | 90% | 1009.6 hPa | 3.05 mm | - | 95 W/m² | - |
| 1777999955 | 11.11° C | 87% | 1009.7 hPa | 3.05 mm | - | 105 W/m² | - |
| 1777999650 | 11.11° C | 85% | 1009.5 hPa | 1.78 mm | - | 109 W/m² | - |
| 1777999348 | 11.11° C | 82% | 1009.9 hPa | 1.78 mm | - | 96 W/m² | - |
| 1777999046 | 11.11° C | 85% | 1009.7 hPa | 0 mm | - | 122 W/m² | - |
| 1777998744 | 11.11° C | 85% | 1009.6 hPa | 1.27 mm | - | 145 W/m² | - |
| 1777998441 | 11.11° C | 85% | 1009.6 hPa | 1.27 mm | - | 132 W/m² | - |
| 1777998138 | 11.11° C | 85% | 1009.5 hPa | 0 mm | - | 126 W/m² | - |
| 1777997835 | 11.67° C | 84% | 1009.4 hPa | 1.78 mm | - | 139 W/m² | - |
| 1777997533 | 11.67° C | 84% | 1009.3 hPa | 1.78 mm | - | 145 W/m² | - |
| 1777997230 | 11.67° C | 84% | 1009.5 hPa | 0 mm | - | 161 W/m² | - |
| 1777996928 | 11.67° C | 82% | 1009.9 hPa | 0 mm | - | 121 W/m² | - |
| 1777996624 | 11.67° C | 81% | 1009.7 hPa | 0 mm | - | 106 W/m² | - |
| 1777996320 | 11.67° C | 81% | 1009.6 hPa | 0 mm | - | 102 W/m² | - |
| 1777996016 | 11.67° C | 81% | 1010.1 hPa | 0 mm | - | 99 W/m² | - |
| 1777995712 | 11.67° C | 80% | 1009.7 hPa | 0 mm | - | 92 W/m² | - |
| 1777995409 | 11.67° C | 80% | 1009.8 hPa | 0 mm | - | 125 W/m² | - |
| 1777995106 | 11.67° C | 80% | 1010 hPa | 0 mm | - | 113 W/m² | - |
| 1777994803 | 11.11° C | 83% | 1009.8 hPa | 0 mm | - | 123 W/m² | - |
| 1777994499 | 11.67° C | 81% | 1009.8 hPa | 0 mm | - | 110 W/m² | - |
| 1777994194 | 11.67° C | 79% | 1009.6 hPa | 0 mm | - | 174 W/m² | - |
* Rain latest hour (hover to see other rain measurements)
** Current wind speed in m/s (hover to see current wind gust speed)